Regional Weather Roundup
Issued by NWS

Home | Current Version | Previous Version | Graphics & Text | Print | Product List | Glossary On
Versions: 1 2 3 4 5 6 7 8 9 10 11 12 13 14 15 16 17 18 19 20 21 22 23 24 25 26 27 28 29 30 31 32 33 34 35 36 37 38 39 40 41 42 43 44 45 46 47 48 49 50
000
ASUS45 KPSR 281210
RWRAZ

ARIZONA HOURLY REGIONAL WEATHER ROUNDUP
NATIONAL WEATHER SERVICE PHOENIX AZ
500 AM MST THU MAY 28 2015

NOTE: FAIR INDICATES FEW OR NO CLOUDS BELOW 12,000 FEET WITH NO
SIGNIFICANT WEATHER AND/OR OBSTRUCTIONS TO VISIBILITY.

AZZ001>003-036-281300-
NORTHWEST ARIZONA

CITY           SKY/WX    TMP DP  RH WIND       PRES   REMARKS
BULLHEAD CITY  CLEAR     73  25  16 W3        29.86S
KINGMAN        CLEAR     61  20  20 S7        30.00S
6HR MIN TEMP:  56; 6HR MAX TEMP:  69;

$$

AZZ004>008-015-016-018-281300-
NORTH CENTRAL ARIZONA

CITY           SKY/WX    TMP DP  RH WIND       PRES   REMARKS
GRAND CANYON   CLEAR     34  31  88 CALM      30.19S
6HR MIN TEMP:  34; 6HR MAX TEMP:  46;

WILLIAMS       CLEAR     37  28  70 S9        30.25F WCI  31
PRESCOTT       CLEAR     44  30  57 S5        30.10F
6HR MIN TEMP:  44; 6HR MAX TEMP:  57;

FLAGSTAFF      CLEAR     36  29  75 CALM      30.20S
6HR MIN TEMP:  36; 6HR MAX TEMP:  44;

PAYSON         PTCLDY    50  23  34 CALM      30.13R
PAGE           CLEAR     59  43  55 SE3       30.06S
6HR MIN TEMP:  59; 6HR MAX TEMP:  72;

$$

AZZ009>014-017-281300-
NORTHEAST ARIZONA

CITY           SKY/WX    TMP DP  RH WIND       PRES   REMARKS
WINSLOW        CLEAR     41  28  60 CALM      30.11R
6HR MIN TEMP:  41; 6HR MAX TEMP:  59;

SAINT JOHNS    CLEAR     48  22  35 CALM      30.15R
6HR MIN TEMP:  48; 6HR MAX TEMP:  56;

WINDOW ROCK    CLEAR     38  29  70 SE5       30.19S WCI  34
6HR MIN TEMP:  37; 6HR MAX TEMP:  51;

SHOW LOW       CLEAR     41  19  42 S6        30.19S
$$

AZZ023-281300-
GREATER PHOENIX AREA

CITY           SKY/WX    TMP DP  RH WIND       PRES   REMARKS
PHOENIX        CLEAR     73  39  29 E5        29.88R
6HR MIN TEMP:  73; 6HR MAX TEMP:  82;

BUCKEYE          N/A     61  32  33 NE3       29.89S
LUKE AFB       CLEAR     64  39  39 N5        29.88R
6HR MIN TEMP:  63; 6HR MAX TEMP:  73;

DEER VALLEY    CLEAR     68  31  25 N3        29.89S
6HR MIN TEMP:  67; 6HR MAX TEMP:  75;

SCOTTSDALE     CLEAR     67  43  41 CALM      29.91R
6HR MIN TEMP:  67; 6HR MAX TEMP:  79;

MESA-GATEWAY   CLEAR     64  37  36 E7        29.92R
$$

AZZ027-028-281300-
SOUTHWEST MARICOPA COUNTY AND PINAL COUNTY

CITY           SKY/WX    TMP DP  RH WIND       PRES   REMARKS
CASA GRANDE    CLEAR     64  23  20 CALM      29.90S
6HR MIN TEMP:  63; 6HR MAX TEMP:  79;

GILA BEND      FAIR      69  35  29 SE8       29.87S
6HR MIN TEMP:  67; 6HR MAX TEMP:  77;

$$

AZZ503-504-507>509-281300-
SOUTHEAST ARIZONA

CITY           SKY/WX    TMP DP  RH WIND       PRES   REMARKS
TUCSON         CLEAR     63  30  28 SE8       30.01R
6HR MIN TEMP:  63; 6HR MAX TEMP:  77;

DAVIS-MONTHAN  CLEAR     62  28  27 S3        29.99R
6HR MIN TEMP:  62; 6HR MAX TEMP:  75;

NOGALES        CLEAR     54  28  36 CALM      30.05S
6HR MIN TEMP:  53; 6HR MAX TEMP:  67;

SIERRA VISTA   CLEAR     61  26  27 W7        30.10S
6HR MIN TEMP:  61; 6HR MAX TEMP:  72;

DOUGLAS        CLEAR     47  17  30 N5        30.07S
6HR MIN TEMP:  45; 6HR MAX TEMP:  62;

SAFFORD        CLEAR     57  22  25 E7        30.00R
6HR MIN TEMP:  57; 6HR MAX TEMP:  76;

$$

AZZ020-021-025-026-031-281300-
SOUTHWEST ARIZONA

CITY           SKY/WX    TMP DP  RH WIND       PRES   REMARKS
YUMA           CLEAR     67  41  38 S3        29.85R
6HR MIN TEMP:  67; 6HR MAX TEMP:  78;

$$

CAZ031-033-041-043-047-048-061-281300-
SOUTHERN CALIFORNIA

CITY           SKY/WX    TMP DP  RH WIND       PRES   REMARKS
DOWNTOWN L.A.  CLOUDY    58  54  86 W3        29.96R
6HR MIN TEMP:  57; 6HR MAX TEMP:  59;

L.A. AIRPORT   CLOUDY    58  55  90 SW3       29.97R
6HR MIN TEMP:  57; 6HR MAX TEMP:  59;

SAN DIEGO      CLOUDY    62  55  77 N3        29.98R
6HR MIN TEMP:  62; 6HR MAX TEMP:  63;

BURBANK        CLEAR     57  51  80 S3        29.95R
6HR MIN TEMP:  57; 6HR MAX TEMP:  61;

ONTARIO        CLEAR     54  51  90 CALM      29.95S FOG
6HR MIN TEMP:  54; 6HR MAX TEMP:  60;

RIVERSIDE      PTCLDY    55  52  89 CALM      29.96S
6HR MIN TEMP:  55; 6HR MAX TEMP:  61;

PALM SPRINGS   CLEAR     73  51  46 N6        29.86R
6HR MIN TEMP:  71; 6HR MAX TEMP:  80;

EL CENTRO NAS  CLEAR     65  52  62 SE5       29.83R
6HR MIN TEMP:  65; 6HR MAX TEMP:  78;

IMPERIAL       CLEAR     68  57  68 SE9       29.81R
6HR MIN TEMP:  68; 6HR MAX TEMP:  81;

BLYTHE         CLEAR     68  38  33 N6        29.84R
6HR MIN TEMP:  68; 6HR MAX TEMP:  83;

$$

NVZ020-UTZ003-281300-
SOUTHERN NEVADA-UTAH

CITY           SKY/WX    TMP DP  RH WIND       PRES   REMARKS
LAS VEGAS      CLEAR     73  34  23 VRB3      29.88R
6HR MIN TEMP:  72; 6HR MAX TEMP:  83;

SALT LAKE CITY MOCLDY    52  47  83 S3        30.09R
6HR MIN TEMP:  51; 6HR MAX TEMP:  55;

$$

NMZ009-TXZ055-281300-
NEW MEXICO-WEST TEXAS

CITY           SKY/WX    TMP DP  RH WIND       PRES   REMARKS
ALBUQUERQUE    PTCLDY    56  34  43 SW5       30.11R
6HR MIN TEMP:  54; 6HR MAX TEMP:  65;

EL PASO        PTCLDY    72  31  22 S7        30.00R
6HR MIN TEMP:  68; 6HR MAX TEMP:  79;

$$


........................KEY........................
SKY/WX - SKY CONDITION/WEATHER
TMP    - TEMPERATURE IN FAHRENHEIT
DP     - DEW POINT IN FAHRENHEIT
RH     - RELATIVE HUMIDITY IN PERCENT
WIND   - DIRECTION AND SPEED IN MILES PER HOUR (MPH)
VRB    - VARIABLE WIND DIRECTION
PRES   - MEAN SEA LEVEL PRESSURE IN INCHES OF MERCURY
         F - FALLING PRESSURE   R - RISING PRESSURE
         S - STEADY PRESSURE
VSB    - VISIBILITY IN MILES
HX     - HEAT INDEX IN FAHRENHEIT
WCI    - WIND CHILL INDEX IN FAHRENHEIT
TC     - TEMPERATURE IN CELSIUS WHICH IS ALSO KNOWN AS
         TEMPERATURE IN CENTIGRADE
AFB    - AIR FORCE BASE
         LUKE AFB IS LUKE AIR FORCE BASE
         DAVIS-MONTHAN IS DAVIS-MONTHAN AIR FORCE BASE
NAS    - NAVAL AIR STATION
         EL CENTRO NAS IS EL CENTRO NAVAL AIR STATION
N/A    - NOT AVAILABLE



USA.gov is the U.S. government's official web portal to all federal, state and local government web resources and services.